This demonstration page uses our WeatherBlox Daily Observations layout. Learn more.

Left ArrowRight Arrow

Hourly Observations for April 1, 2021

Temp ( °F °C ) Dew Point ( °F °C ) Humidity (%) Winds ( mph kmh ) Pressure ( in mb ) Visibility ( mi km ) Precip ( " mm )
12:54 am 00:54 Clear 25 -3.9 13 -10.6 60 60 N 6 9 30.58 1036 10 16 0.00 0.00
1:54 am 01:54 Clear 22 -5.6 13 -10.6 68 68 Calm 30.58 1036 10 16 0.00 0.00
2:54 am 02:54 Clear 23 -5 14 -10 68 68 Calm 30.58 1036 10 16 0.00 0.00
3:54 am 03:54 Clear 20 -6.7 13 -10.6 74 74 N 5 7 30.58 1036 10 16 0.00 0.00
4:54 am 04:54 Clear 19 -7.2 12 -11.1 74 74 N 6 9 30.58 1036 10 16 0.00 0.00
5:54 am 05:54 Clear 21 -6.1 14 -10 74 74 WSW 3 6 30.60 1036 10 16 0.00 0.00
6:54 am 06:54 Clear 17 -8.3 11 -11.7 77 77 Calm 30.61 1037 10 16 0.00 0.00
7:54 am 07:54 Sunny 25 -3.9 15 -9.4 66 66 Calm 30.62 1037 10 16 0.00 0.00
8:54 am 08:54 Sunny 29 -1.7 19 -7.2 66 66 Calm 30.63 1037 10 16 0.00 0.00
9:54 am 09:54 Sunny 38 3.3 13 -10.6 36 36 SE 9 15 30.61 1037 10 16 0.00 0.00
10:54 am 10:54 Sunny 43 6.1 13 -10.6 29 29 S 10 17 30.61 1037 10 16 0.00 0.00
11:54 am 11:54 Sunny 47 8.3 15 -9.4 28 28 S 12 19 30.58 1036 10 16 0.00 0.00
12:54 pm 12:54 Sunny 50 10 15 -9.4 25 25 S 13 20 30.55 1035 10 16 0.00 0.00
1:54 pm 13:54 Sunny 54 12.2 16 -8.9 22 22 S 9 15 30.51 1033 10 16 0.00 0.00
2:54 pm 14:54 Sunny 56 13.3 16 -8.9 21 21 S 12 19 30.46 1032 10 16 0.00 0.00
3:54 pm 15:54 Sunny 58 14.4 17 -8.3 20 20 S 18 30 30.42 1030 10 16 0.00 0.00
4:54 pm 16:54 Sunny 58 14.4 17 -8.3 20 20 S 18 30 30.38 1029 10 16 0.00 0.00
5:54 pm 17:54 Sunny 58 14.4 17 -8.3 20 20 S 16 26 30.35 1028 10 16 0.00 0.00
6:54 pm 18:54 Sunny 56 13.3 17 -8.3 22 22 S 18 30 30.36 1028 10 16 0.00 0.00
7:54 pm 19:54 Clear 52 11.1 18 -7.8 26 26 SSE 15 24 30.34 1028 10 16 0.00 0.00
8:54 pm 20:54 Clear 50 10 19 -7.2 29 29 SSE 18 30 30.32 1027 10 16 0.00 0.00
9:54 pm 21:54 Clear 48 8.9 19 -7.2 32 32 SSE 18 30 30.32 1027 10 16 0.00 0.00
10:54 pm 22:54 Clear 46 7.8 19 -7.2 34 34 SSE 18 30 30.30 1026 10 16 0.00 0.00
11:54 pm 23:54 Clear 45 7.2 20 -6.7 37 37 S 21 33 30.29 1026 10 16 0.00 0.00

Powered by AerisWeather